Weather History for PAEG - November, 2011

Change the Weather History Date:

Friday, November 18, 2011

  Actual Average (PABN) Record (PABN)
Temperature  
Mean Temperature -30 °F -  
Max Temperature -23 °F 10 °F 39 °F (1996)
Min Temperature -38 °F 4 °F -25 °F (2003)
Degree Days  
Heating Degree Days 96    
Moisture  
Dew Point -33 °F    
Average Humidity 73    
Maximum Humidity 76    
Minimum Humidity 69    
Precipitation  
Precipitation 0.00 in - - ()
Sea Level Pressure  
Sea Level Pressure 30.47 in    
Wind  
Wind Speed 0 mph (North)    
Max Wind Speed 0 mph    
Max Gust Speed -    
Visibility 9 miles    
Events      
Averages and records for this station are not official NWS values.
T = Trace of Precipitation, MM = Missing Value Source: NWS Daily Summary

Daily Weather History Graph

Daily Weather History Graph

Search for Another Location

Airport or City:

Trip Planner

Search our weather history database for the weather conditions in past years. The results will help you decide how hot, cold, wet, or windy it might be!

Date:

Astronomy

Nov. 18, 2011 Rise Set
Actual Time 9:09 AM AKST 3:09 PM AKST
Civil Twilight 8:04 AM AKST 4:13 PM AKST
Nautical Twilight 7:01 AM AKST 5:17 PM AKST
Astronomical Twilight 6:03 AM AKST 6:15 PM AKST
Moon No Moon Rise 1:31 PM AKST (11/18)
Length of Visible Light 8h 08m
Length of Day
6h 00m
Waning Gibbous, 47% of the Moon is Illuminated
Nov 18
Waning Gibbous
Nov 24
New
Dec 2
First Quarter
Dec 10
Full
Dec 17
Last Quarter

Hourly Weather History & Observations

Time (AKST) Temp. Dew Point Humidity Pressure Visibility Wind Dir Wind Speed Gust Speed Precip Events Conditions
12:02 AM -23.8 °F -29.2 °F 76% 30.50 in 10.0 mi Calm Calm - N/A   Mostly Cloudy
12:53 AM -23.1 °F -29.0 °F 74% 30.58 in 9.0 mi Calm Calm - N/A   Overcast
1:53 AM -24.0 °F -29.9 °F 74% 30.57 in 9.0 mi Calm Calm - N/A   Overcast
2:16 AM -25.6 °F -31.0 °F 76% 30.46 in 10.0 mi Calm Calm - N/A   Mostly Cloudy
3:53 AM -27.0 °F -33.0 °F 73% 30.54 in 10.0 mi Calm Calm - N/A   Clear
4:53 AM -29.0 °F -35.0 °F 73% 30.52 in 6.0 mi Calm Calm - N/A   Haze
5:53 AM -29.9 °F - N/A% 30.51 in 10.0 mi Calm Calm - N/A   Clear
6:53 AM -31.0 °F - N/A% 30.49 in 10.0 mi Calm Calm - N/A   Clear
7:53 AM -31.0 °F - N/A% 30.48 in 10.0 mi Calm Calm - N/A   Clear
8:53 AM -32.1 °F - N/A% 30.47 in 10.0 mi Calm Calm - N/A   Clear
9:53 AM -31.0 °F - N/A% 30.47 in 10.0 mi Calm Calm - N/A   Clear
10:53 AM -29.9 °F - N/A% 30.47 in 10.0 mi Calm Calm - N/A   Clear
11:53 AM -26.0 °F -32.1 °F 73% 30.46 in 10.0 mi Calm Calm - N/A   Clear
12:53 PM -25.1 °F -31.0 °F 74% 30.45 in 10.0 mi Calm Calm - N/A   Clear
1:53 PM -27.9 °F -34.1 °F 73% 30.46 in 5.0 mi Calm Calm - N/A   Haze
2:00 PM -27.4 °F -34.6 °F 69% 30.34 in 2.5 mi Calm Calm - N/A   Haze
2:10 PM -27.4 °F -34.6 °F 69% 30.33 in 4.0 mi Calm Calm - N/A   Haze
2:27 PM -29.2 °F -34.6 °F 75% 30.33 in 7.0 mi Calm Calm - N/A   Scattered Clouds
2:53 PM -29.0 °F -35.0 °F 73% 30.46 in 10.0 mi Calm Calm - N/A   Clear
3:53 PM -31.0 °F - N/A% 30.47 in 10.0 mi Calm Calm - N/A   Clear
4:53 PM -33.0 °F - N/A% 30.48 in 10.0 mi Calm Calm - N/A   Clear
5:53 PM -34.1 °F - N/A% 30.50 in 10.0 mi Calm Calm - N/A   Clear
6:53 PM -35.0 °F - N/A% 30.50 in 10.0 mi Calm Calm - N/A   Clear
7:53 PM -36.0 °F - N/A% 30.51 in 10.0 mi Calm Calm - N/A   Clear
8:53 PM -36.0 °F - N/A% 30.52 in 10.0 mi Calm Calm - N/A   Clear
9:24 PM -36.4 °F - N/A% 30.39 in 4.0 mi Calm Calm - N/A   Haze
9:53 PM -36.9 °F - N/A% 30.53 in 10.0 mi Calm Calm - N/A   Partly Cloudy
10:53 PM -38.0 °F - N/A% 30.53 in 10.0 mi Calm Calm - N/A   Clear
11:16 PM -38.2 °F - N/A% 30.40 in 10.0 mi Calm Calm - N/A   Scattered Clouds
11:53 PM -38.0 °F - N/A% 30.53 in 10.0 mi Calm Calm - N/A   Clear